{"data":{"norad_id":68551,"epoch":"2026-09-20T00:32:31.966080Z","epoch_age_seconds":86561,"freshness":"FRESH","line1":"1 68551U 26070K   26263.02259220  .00013169  00000+0  40004-3 0  9991","line2":"2 68551  53.1589 175.9791 0001854  99.5424 260.5788 15.34413767 26362","mean_motion":15.34413767,"eccentricity":0.0001854,"inclination_deg":53.1589,"raan_deg":175.9791,"arg_perigee_deg":99.5424,"mean_anomaly_deg":260.5788,"bstar":0.00040004,"rev_number":2636,"period_min":93.84691606459,"perigee_km":461.39403789346,"apogee_km":463.93060628209,"semimajor_km":6840.7993220878,"source":"CELESTRAK","updated_at":"2026-09-20T09:00:43.933949Z"}}